Location: Unspecified
(0.0000°N, 0.0000°E)
Time: 08:09:14
(UTC+00:00)

deb NOAA 5 - Pass Details

Date: 16 February 2026
Orbit: 747 x 1048 km, 102.9° (Epoch: 14 March)

Event Time Altitude Azimuth Distance (km) Brightness Sun altitude
Rises 04:48:29 0° 123° (ESE) 3,399 ? -20.9°
Reaches altitude 10° 04:52:19 10° 95° (E) 2,532 ? -19.9°
Maximum altitude 04:54:38 13° 70° (ENE) 2,386 ? -19.4°
Drops below altitude 10° 04:57:00 10° 46° (NE) 2,615 ? -18.8°
Sets 05:01:04 0° 19° (NNE) 3,630 ? -17.8°
